TimeEDT,TemperatureF,Dew PointF,Humidity,Sea Level PressureIn,VisibilityMPH,Wind Direction,Wind SpeedMPH,Gust SpeedMPH,PrecipitationIn,Events,Conditions,WindDirDegrees,DateUTC
12:15 AM,50.0,48.2,94,30.24,10.0,Calm,Calm,-,N/A,,Clear,0,2012-09-28 04:15:00
12:35 AM,51.8,48.2,88,30.24,10.0,NE,3.5,-,N/A,,Mostly Cloudy,50,2012-09-28 04:35:00
12:55 AM,51.8,48.2,88,30.24,10.0,ENE,5.8,-,N/A,,Overcast,60,2012-09-28 04:55:00
1:15 AM,53.6,48.2,82,30.24,10.0,ENE,5.8,-,N/A,,Overcast,70,2012-09-28 05:15:00
1:35 AM,51.8,46.4,82,30.24,10.0,ENE,5.8,-,N/A,,Mostly Cloudy,70,2012-09-28 05:35:00
1:55 AM,51.8,46.4,82,30.24,10.0,ENE,4.6,-,N/A,,Scattered Clouds,70,2012-09-28 05:55:00
2:15 AM,50.0,46.4,87,30.24,10.0,East,4.6,-,N/A,,Partly Cloudy,80,2012-09-28 06:15:00
2:35 AM,50.0,46.4,87,30.24,10.0,ENE,3.5,-,N/A,,Partly Cloudy,60,2012-09-28 06:35:00
2:55 AM,51.8,46.4,82,30.23,10.0,ENE,6.9,-,N/A,,Scattered Clouds,60,2012-09-28 06:55:00
3:15 AM,50.0,46.4,87,30.23,10.0,East,5.8,-,N/A,,Partly Cloudy,80,2012-09-28 07:15:00
3:35 AM,51.8,48.2,88,30.23,10.0,ENE,5.8,-,N/A,,Clear,70,2012-09-28 07:35:00
3:55 AM,53.6,48.2,82,30.23,10.0,ENE,5.8,-,N/A,,Clear,70,2012-09-28 07:55:00
4:15 AM,53.6,48.2,82,30.24,10.0,ENE,5.8,-,N/A,,Mostly Cloudy,60,2012-09-28 08:15:00
4:35 AM,55.4,48.2,77,30.22,10.0,ENE,9.2,-,N/A,,Overcast,70,2012-09-28 08:35:00
4:55 AM,55.4,48.2,77,30.21,10.0,East,8.1,-,N/A,,Mostly Cloudy,80,2012-09-28 08:55:00
5:15 AM,55.4,48.2,77,30.20,10.0,East,8.1,-,N/A,,Mostly Cloudy,80,2012-09-28 09:15:00
5:35 AM,55.4,48.2,77,30.22,10.0,East,4.6,-,N/A,,Mostly Cloudy,80,2012-09-28 09:35:00
5:55 AM,55.4,48.2,77,30.22,10.0,ENE,5.8,-,N/A,,Overcast,70,2012-09-28 09:55:00
6:15 AM,55.4,48.2,77,30.22,10.0,East,4.6,-,N/A,,Overcast,80,2012-09-28 10:15:00
6:35 AM,55.4,48.2,77,30.22,10.0,ENE,6.9,-,N/A,,Mostly Cloudy,70,2012-09-28 10:35:00
6:55 AM,55.4,48.2,77,30.23,10.0,East,4.6,-,N/A,,Mostly Cloudy,100,2012-09-28 10:55:00
7:15 AM,55.4,48.2,77,30.22,10.0,East,8.1,-,N/A,,Overcast,90,2012-09-28 11:15:00
7:35 AM,57.2,48.2,72,30.23,10.0,ESE,6.9,-,N/A,,Overcast,120,2012-09-28 11:35:00
7:55 AM,57.2,48.2,72,30.22,10.0,ESE,8.1,-,N/A,,Overcast,120,2012-09-28 11:55:00
8:15 AM,59.0,48.2,67,30.22,10.0,ESE,9.2,-,N/A,,Overcast,120,2012-09-28 12:15:00
8:35 AM,59.0,48.2,67,30.22,10.0,ESE,9.2,-,N/A,,Overcast,120,2012-09-28 12:35:00
8:55 AM,59.0,50.0,72,30.21,10.0,ESE,9.2,-,N/A,,Overcast,120,2012-09-28 12:55:00
9:15 AM,60.8,50.0,68,30.20,10.0,ESE,11.5,-,N/A,,Mostly Cloudy,120,2012-09-28 13:15:00
9:35 AM,62.6,50.0,63,30.20,10.0,ESE,13.8,19.6,N/A,,Mostly Cloudy,120,2012-09-28 13:35:00
9:55 AM,62.6,50.0,63,30.19,10.0,East,15.0,21.9,N/A,,Partly Cloudy,100,2012-09-28 13:55:00
10:15 AM,60.8,50.0,68,30.20,10.0,ESE,13.8,-,N/A,,Scattered Clouds,120,2012-09-28 14:15:00
10:35 AM,60.8,50.0,68,30.21,10.0,SE,18.4,-,N/A,,Overcast,140,2012-09-28 14:35:00
11:15 AM,59.0,51.8,77,30.19,10.0,SE,15.0,18.4,N/A,,Overcast,130,2012-09-28 15:15:00
11:35 AM,59.0,51.8,77,30.19,10.0,SE,9.2,-,N/A,,Overcast,130,2012-09-28 15:35:00
11:55 AM,59.0,50.0,72,30.19,10.0,SE,12.7,-,N/A,,Overcast,130,2012-09-28 15:55:00
12:15 PM,59.0,50.0,72,30.20,10.0,SSE,10.4,-,N/A,,Overcast,150,2012-09-28 16:15:00
12:35 PM,59.0,53.6,82,30.18,5.0,ESE,10.4,-,N/A,Rain,Light Rain,120,2012-09-28 16:35:00
12:55 PM,59.0,53.6,82,30.17,8.0,SE,12.7,-,N/A,Rain,Light Rain,130,2012-09-28 16:55:00
1:15 PM,59.0,55.4,88,30.16,10.0,SE,12.7,-,N/A,,Mostly Cloudy,130,2012-09-28 17:15:00
1:35 PM,59.0,53.6,82,30.15,10.0,SE,11.5,-,N/A,,Overcast,130,2012-09-28 17:35:00
1:55 PM,59.0,53.6,82,30.14,10.0,ESE,11.5,-,N/A,,Overcast,120,2012-09-28 17:55:00
2:15 PM,59.0,53.6,82,30.12,10.0,ESE,11.5,17.3,N/A,,Unknown,110,2012-09-28 18:15:00
2:35 PM,59.0,53.6,82,30.11,10.0,ESE,11.5,-,N/A,,Overcast,120,2012-09-28 18:35:00
2:55 PM,59.0,53.6,82,30.11,10.0,ESE,15.0,-,N/A,,Overcast,110,2012-09-28 18:55:00
3:15 PM,57.2,53.6,88,30.10,4.0,ESE,11.5,18.4,N/A,Rain,Light Rain,120,2012-09-28 19:15:00
3:35 PM,57.2,55.4,94,30.09,8.0,ESE,10.4,-,0.01,Rain,Light Rain,110,2012-09-28 19:35:00
3:55 PM,57.2,55.4,94,30.09,10.0,ESE,10.4,-,0.01,,Overcast,110,2012-09-28 19:55:00
4:15 PM,57.2,55.4,94,30.07,10.0,ESE,16.1,-,N/A,,Overcast,110,2012-09-28 20:15:00
4:35 PM,57.2,55.4,94,30.06,9.0,ESE,11.5,19.6,N/A,,Overcast,110,2012-09-28 20:35:00
4:55 PM,57.2,55.4,94,30.07,2.5,ESE,12.7,21.9,N/A,Rain,Light Rain,120,2012-09-28 20:55:00
5:15 PM,57.2,55.4,94,30.06,3.0,ESE,16.1,21.9,0.01,Rain,Light Rain,110,2012-09-28 21:15:00
5:35 PM,57.2,55.4,94,30.06,9.0,ESE,16.1,21.9,0.01,,Overcast,120,2012-09-28 21:35:00
5:55 PM,57.2,55.4,94,30.05,8.0,SE,17.3,24.2,0.01,Rain,Light Rain,130,2012-09-28 21:55:00
6:15 PM,57.2,55.4,94,30.04,5.0,ESE,19.6,25.3,N/A,Rain,Light Rain,120,2012-09-28 22:15:00
6:35 PM,57.2,55.4,94,30.03,10.0,ESE,17.3,21.9,N/A,,Overcast,120,2012-09-28 22:35:00
6:55 PM,57.2,55.4,94,30.03,10.0,SE,12.7,19.6,N/A,,Overcast,130,2012-09-28 22:55:00
7:15 PM,59.0,57.2,94,30.03,10.0,ESE,15.0,20.7,N/A,,Overcast,110,2012-09-28 23:15:00
7:35 PM,59.0,57.2,94,30.03,8.0,ESE,12.7,17.3,N/A,Rain,Light Rain,110,2012-09-28 23:35:00
7:55 PM,59.0,57.2,94,30.02,10.0,ESE,13.8,21.9,N/A,,Overcast,110,2012-09-28 23:55:00
8:15 PM,59.0,57.2,94,30.01,10.0,ESE,16.1,20.7,N/A,,Overcast,110,2012-09-29 00:15:00
8:35 PM,59.0,57.2,94,30.00,4.0,ESE,12.7,-,0.01,Rain,Light Rain,120,2012-09-29 00:35:00
8:55 PM,59.0,57.2,94,30.01,3.0,SE,6.9,-,0.06,Rain,Rain,140,2012-09-29 00:55:00
9:15 PM,59.0,59.0,100,29.99,5.0,East,9.2,-,N/A,Rain,Light Rain,100,2012-09-29 01:15:00
9:35 PM,60.8,59.0,94,29.98,8.0,SE,8.1,-,0.01,Rain,Light Rain,130,2012-09-29 01:35:00
9:55 PM,62.6,59.0,88,29.97,10.0,SE,17.3,-,0.01,,Overcast,140,2012-09-29 01:55:00
10:15 PM,62.6,60.8,94,29.97,5.0,SE,13.8,19.6,N/A,Rain-Thunderstorm,Light Rain,130,2012-09-29 02:15:00
10:35 PM,62.6,62.6,100,29.96,7.0,ESE,11.5,18.4,0.01,Thunderstorm,Overcast,120,2012-09-29 02:35:00
10:55 PM,62.6,62.6,100,29.94,5.0,SE,11.5,-,0.01,Rain,Light Rain,130,2012-09-29 02:55:00
11:15 PM,64.4,62.6,94,29.94,10.0,SSE,8.1,-,N/A,Thunderstorm,Overcast,150,2012-09-29 03:15:00
11:35 PM,64.4,62.6,94,29.94,10.0,SSE,8.1,-,N/A,Thunderstorm,Overcast,160,2012-09-29 03:35:00
11:55 PM,64.4,62.6,94,29.94,5.0,WSW,6.9,-,N/A,,Overcast,240,2012-09-29 03:55:00